| time (UTC) | temp C | wind direction | speed KPH | gust KPH | rain 1hr cm | rain 24hr cm | rain mn cm | humidity % | barometer mb |
| 20260505190204 | 13 | 17 | 4.8 | 16.1 | 0.00 | 0.00 | 0.00 | 72 | 1011.4 |
| 20260505184203 | 14 | 343 | 3.2 | 11.3 | 0.00 | 0.00 | 0.00 | 72 | 1011.3 |
| 20260505183704 | 14 | 17 | 4.8 | 14.5 | 0.00 | 0.00 | 0.00 | 71 | 1011.3 |
| 20260505183204 | 14 | 328 | 1.6 | 14.5 | 0.00 | 0.00 | 0.00 | 71 | 1011.3 |
| 20260505181705 | 14 | 306 | 6.4 | 14.5 | 0.00 | 0.00 | 0.00 | 70 | 1011.2 |
| 20260505181203 | 14 | 347 | 4.8 | 9.7 | 0.00 | 0.00 | 0.00 | 70 | 1011.3 |
| 20260505180703 | 14 | 337 | 4.8 | 12.9 | 0.00 | 0.00 | 0.00 | 70 | 1011.4 |
| 20260505180203 | 15 | 299 | 3.2 | 16.1 | 0.00 | 0.00 | 0.00 | 70 | 1011.3 |
| 20260505173704 | 14 | 348 | 4.8 | 11.3 | 0.00 | 0.00 | 0.00 | 71 | 1011.4 |
| 20260505173204 | 14 | 310 | 4.8 | 16.1 | 0.00 | 0.00 | 0.00 | 71 | 1011.4 |
| 20260505171704 | 14 | 327 | 3.2 | 8.0 | 0.00 | 0.00 | 0.00 | 72 | 1011.3 |
| 20260505170703 | 14 | 285 | 3.2 | 8.0 | 0.00 | 0.00 | 0.00 | 73 | 1011.3 |
| 20260505164703 | 14 | 299 | 1.6 | 8.0 | 0.00 | 0.00 | 0.00 | 73 | 1011.4 |
| 20260505164204 | 14 | 299 | 3.2 | 8.0 | 0.00 | 0.00 | 0.00 | 73 | 1011.4 |
| 20260505163704 | 14 | 355 | 1.6 | 8.0 | 0.00 | 0.00 | 0.00 | 73 | 1011.4 |
| 20260505163204 | 14 | 354 | 1.6 | 12.9 | 0.00 | 0.00 | 0.00 | 73 | 1011.5 |
| 20260505161703 | 15 | 309 | 3.2 | 12.9 | 0.00 | 0.00 | 0.00 | 72 | 1011.5 |
| 20260505161204 | 15 | 303 | 3.2 | 14.5 | 0.00 | 0.00 | 0.00 | 72 | 1011.5 |
| 20260505160704 | 15 | 300 | 4.8 | 9.7 | 0.00 | 0.00 | 0.00 | 71 | 1011.6 |
| 20260505160203 | 15 | 317 | 4.8 | 12.9 | 0.00 | 0.00 | 0.00 | 71 | 1011.5 |
| 20260505153204 | 15 | 63 | 4.8 | 14.5 | 0.00 | 0.00 | 0.00 | 68 | 1011.5 |
| 20260505151703 | 15 | 342 | 1.6 | 8.0 | 0.00 | 0.00 | 0.00 | 68 | 1011.4 |
| 20260505151204 | 15 | 303 | 0.0 | 9.7 | 0.00 | 0.00 | 0.00 | 68 | 1011.4 |
| 20260505150703 | 15 | 303 | 4.8 | 12.9 | 0.00 | 0.00 | 0.00 | 67 | 1011.5 |
| 20260505150203 | 15 | 13 | 4.8 | 12.9 | 0.00 | 0.00 | 0.00 | 68 | 1011.5 |
| 20260505140204 | 15 | 36 | 1.6 | 14.5 | 0.00 | 0.00 | 0.00 | 69 | 1011.7 |
| 20260505124704 | 16 | 2 | 8.0 | 14.5 | 0.00 | 0.00 | 0.00 | 65 | 1012.1 |
| 20260505124203 | 16 | 291 | 9.7 | 14.5 | 0.00 | 0.00 | 0.00 | 68 | 1012.0 |
| 20260505123704 | 15 | 293 | 9.7 | 19.3 | 0.00 | 0.00 | 0.00 | 69 | 1012.1 |
| 20260505123203 | 15 | 317 | 8.0 | 19.3 | 0.00 | 0.00 | 0.00 | 69 | 1012.1 |
| 20260505121703 | 16 | 299 | 3.2 | 9.7 | 0.00 | 0.00 | 0.00 | 67 | 1012.0 |
| 20260505121204 | 16 | 302 | 11.3 | 19.3 | 0.00 | 0.00 | 0.00 | 69 | 1012.0 |
| 20260505120703 | 15 | 40 | 3.2 | 8.0 | 0.00 | 0.00 | 0.00 | 70 | 1012.0 |
| 20260505120204 | 15 | 63 | 1.6 | 16.1 | 0.00 | 0.00 | 0.00 | 71 | 1012.1 |
| 20260505114704 | 15 | 331 | 4.8 | 12.9 | 0.00 | 0.00 | 0.00 | 74 | 1012.2 |
| 20260505114203 | 14 | 2 | 4.8 | 12.9 | 0.00 | 0.00 | 0.00 | 75 | 1012.2 |
| 20260505113703 | 14 | 303 | 6.4 | 12.9 | 0.00 | 0.00 | 0.00 | 75 | 1012.3 |
| 20260505111705 | 13 | 58 | 4.8 | 12.9 | 0.00 | 0.00 | 0.00 | 74 | 1012.5 |
| 20260505111204 | 14 | 50 | 3.2 | 11.3 | 0.00 | 0.00 | 0.00 | 76 | 1012.5 |
| 20260505110703 | 13 | 300 | 6.4 | 12.9 | 0.00 | 0.00 | 0.00 | 77 | 1012.6 |
| 20260505110203 | 13 | 298 | 3.2 | 16.1 | 0.00 | 0.00 | 0.00 | 79 | 1012.6 |
| 20260505101704 | 12 | 29 | 3.2 | 8.0 | 0.00 | 0.00 | 0.00 | 81 | 1012.9 |
| 20260505101203 | 12 | 53 | 4.8 | 11.3 | 0.00 | 0.00 | 0.00 | 80 | 1012.9 |
| 20260505100704 | 12 | 34 | 3.2 | 9.7 | 0.00 | 0.00 | 0.00 | 80 | 1012.9 |
| 20260505100206 | 12 | 348 | 3.2 | 19.3 | 0.00 | 0.00 | 0.00 | 79 | 1012.9 |
| 20260505094703 | 12 | 39 | 4.8 | 14.5 | 0.00 | 0.00 | 0.00 | 83 | 1012.8 |
| 20260505093704 | 12 | 52 | 9.7 | 16.1 | 0.00 | 0.00 | 0.00 | 83 | 1012.9 |
| 20260505093204 | 12 | 66 | 4.8 | 12.9 | 0.00 | 0.00 | 0.00 | 83 | 1013.0 |
| 20260505091204 | 12 | 313 | 3.2 | 14.5 | 0.00 | 0.00 | 0.00 | 84 | 1013.0 |
| 20260505090703 | 12 | 301 | 4.8 | 12.9 | 0.00 | 0.00 | 0.00 | 85 | 1013.1 |
| 20260505090204 | 12 | 302 | 4.8 | 12.9 | 0.00 | 0.00 | 0.00 | 85 | 1013.1 |
| 20260505084703 | 12 | 300 | 1.6 | 8.0 | 0.00 | 0.00 | 0.00 | 86 | 1013.3 |
| 20260505084203 | 11 | 19 | 3.2 | 9.7 | 0.00 | 0.00 | 0.00 | 87 | 1013.3 |
| 20260505083704 | 11 | 64 | 4.8 | 11.3 | 0.00 | 0.00 | 0.00 | 87 | 1013.2 |
| 20260505083205 | 11 | 297 | 1.6 | 12.9 | 0.00 | 0.00 | 0.00 | 87 | 1013.3 |
| 20260505081203 | 11 | 310 | 4.8 | 8.0 | 0.00 | 0.00 | 0.00 | 88 | 1013.3 |
| 20260505080703 | 11 | 311 | 1.6 | 8.0 | 0.00 | 0.00 | 0.00 | 88 | 1013.2 |
| 20260505080204 | 11 | 41 | 1.6 | 14.5 | 0.00 | 0.00 | 0.00 | 88 | 1013.3 |
| 20260505074703 | 11 | 320 | 3.2 | 12.9 | 0.00 | 0.00 | 0.00 | 88 | 1013.1 |
| 20260505074204 | 11 | 358 | 3.2 | 9.7 | 0.00 | 0.00 | 0.00 | 88 | 1013.2 |
| 20260505073704 | 11 | 299 | 4.8 | 12.9 | 0.00 | 0.00 | 0.00 | 88 | 1013.2 |
| 20260505073203 | 11 | 345 | 3.2 | 12.9 | 0.00 | 0.00 | 0.00 | 88 | 1013.2 |
| 20260505071704 | 11 | 330 | 1.6 | 8.0 | 0.00 | 0.00 | 0.00 | 88 | 1013.3 |
| 20260505070206 | 11 | 29 | 3.2 | 11.3 | 0.00 | 0.00 | 0.00 | 89 | 1013.3 |
| 20260505064704 | 11 | 9 | 3.2 | 9.7 | 0.00 | 0.00 | 0.00 | 91 | 1013.4 |
| 20260505064203 | 11 | 320 | 3.2 | 4.8 | 0.00 | 0.00 | 0.00 | 91 | 1013.4 |
| 20260505063704 | 11 | 309 | 4.8 | 9.7 | 0.00 | 0.00 | 0.00 | 91 | 1013.3 |
| 20260505063204 | 11 | 342 | 1.6 | 9.7 | 0.00 | 0.00 | 0.00 | 92 | 1013.4 |
| 20260505061704 | 10 | 317 | 1.6 | 3.2 | 0.00 | 0.00 | 0.00 | 92 | 1013.2 |
| 20260505061204 | 10 | 320 | 1.6 | 4.8 | 0.00 | 0.00 | 0.00 | 91 | 1013.2 |
| 20260505060703 | 10 | 10 | 3.2 | 8.0 | 0.00 | 0.00 | 0.00 | 92 | 1013.3 |
| 20260505060204 | 10 | 297 | 1.6 | 9.7 | 0.00 | 0.00 | 0.00 | 92 | 1013.3 |
| 20260505054203 | 10 | 319 | 3.2 | 4.8 | 0.00 | 0.00 | 0.00 | 92 | 1013.3 |
| 20260505053706 | 10 | 19 | 1.6 | 4.8 | 0.00 | 0.00 | 0.00 | 92 | 1013.4 |
| 20260505053203 | 10 | 313 | 1.6 | 4.8 | 0.00 | 0.00 | 0.00 | 92 | 1013.4 |
| 20260505051704 | 10 | 47 | 1.6 | 8.0 | 0.00 | 0.00 | 0.00 | 92 | 1013.3 |
| 20260505051203 | 10 | 59 | 3.2 | 8.0 | 0.00 | 0.00 | 0.00 | 92 | 1013.3 |
| 20260505050703 | 10 | 61 | 3.2 | 9.7 | 0.00 | 0.00 | 0.00 | 92 | 1013.3 |
| 20260505050203 | 10 | 5 | 0.0 | 8.0 | 0.00 | 0.00 | 0.00 | 92 | 1013.3 |
| 20260505041703 | 10 | 314 | 3.2 | 8.0 | 0.00 | 0.00 | 0.00 | 92 | 1013.5 |
| 20260505041204 | 10 | 304 | 1.6 | 4.8 | 0.00 | 0.00 | 0.00 | 92 | 1013.6 |
| 20260505040704 | 10 | 309 | 3.2 | 8.0 | 0.00 | 0.00 | 0.00 | 92 | 1013.6 |
| 20260505034704 | 10 | 51 | 1.6 | 3.2 | 0.00 | 0.00 | 0.00 | 92 | 1013.5 |
| 20260505034204 | 10 | 51 | 0.0 | 1.6 | 0.00 | 0.00 | 0.00 | 91 | 1013.5 |
| 20260505033704 | 10 | 51 | 0.0 | 1.6 | 0.00 | 0.00 | 0.00 | 91 | 1013.4 |
| 20260505033203 | 10 | 51 | 0.0 | 3.2 | 0.00 | 0.00 | 0.00 | 91 | 1013.5 |
| 20260505031704 | 10 | 51 | 0.0 | 1.6 | 0.00 | 0.00 | 0.00 | 90 | 1013.4 |
| 20260505030704 | 10 | 51 | 0.0 | 3.2 | 0.00 | 0.00 | 0.00 | 90 | 1013.4 |
| 20260505030203 | 10 | 51 | 0.0 | 1.6 | 0.00 | 0.00 | 0.00 | 90 | 1013.3 |
| 20260505024704 | 10 | 51 | 1.6 | 3.2 | 0.00 | 0.00 | 0.00 | 90 | 1013.3 |
| 20260505024204 | 10 | 51 | 1.6 | 3.2 | 0.00 | 0.00 | 0.00 | 90 | 1013.4 |
| 20260505023703 | 10 | 52 | 1.6 | 8.0 | 0.00 | 0.00 | 0.00 | 90 | 1013.4 |
| 20260505023203 | 10 | 314 | 0.0 | 4.8 | 0.00 | 0.00 | 0.00 | 89 | 1013.4 |
| 20260505021704 | 11 | 309 | 1.6 | 4.8 | 0.00 | 0.00 | 0.00 | 90 | 1013.4 |
| 20260505021203 | 11 | 307 | 3.2 | 4.8 | 0.00 | 0.00 | 0.00 | 90 | 1013.4 |
| 20260505020703 | 11 | 19 | 1.6 | 8.0 | 0.00 | 0.00 | 0.00 | 90 | 1013.5 |
| 20260505020204 | 11 | 57 | 1.6 | 4.8 | 0.00 | 0.00 | 0.00 | 90 | 1013.6 |
| 20260505014704 | 11 | 332 | 3.2 | 4.8 | 0.00 | 0.00 | 0.00 | 89 | 1013.5 |
| 20260505013704 | 11 | 46 | 0.0 | 3.2 | 0.00 | 0.00 | 0.00 | 89 | 1013.9 |
| 20260505013203 | 11 | 45 | 1.6 | 8.0 | 0.00 | 0.00 | 0.00 | 89 | 1013.7 |
| 20260505011704 | 11 | 21 | 3.2 | 8.0 | 0.00 | 0.00 | 0.00 | 88 | 1013.9 |
| 20260505011204 | 11 | 338 | 1.6 | 3.2 | 0.00 | 0.00 | 0.00 | 88 | 1014.0 |
| 20260505010704 | 11 | 326 | 0.0 | 3.2 | 0.00 | 0.00 | 0.00 | 88 | 1013.9 |
| 20260505010204 | 11 | 326 | 1.6 | 4.8 | 0.00 | 0.00 | 0.00 | 88 | 1014.0 |
| 20260505004203 | 11 | 342 | 1.6 | 3.2 | 0.00 | 0.00 | 0.00 | 88 | 1013.9 |
| 20260505003704 | 11 | 344 | 1.6 | 4.8 | 0.00 | 0.00 | 0.00 | 88 | 1013.8 |
| 20260505003203 | 11 | 48 | 1.6 | 8.0 | 0.00 | 0.00 | 0.00 | 88 | 1014.0 |
| 20260505001203 | 11 | 60 | 4.8 | 9.7 | 0.00 | 0.00 | 0.00 | 87 | 1014.1 |
| 20260505000703 | 11 | 50 | 4.8 | 9.7 | 0.00 | 0.00 | 0.00 | 87 | 1014.2 |
| 20260505000204 | 11 | 47 | 3.2 | 11.3 | 0.00 | 0.00 | 0.00 | 87 | 1014.3 |
| 20260504234704 | 11 | 30 | 1.6 | 8.0 | 0.00 | 0.00 | 0.00 | 87 | 1014.3 |
| 20260504234204 | 11 | 58 | 3.2 | 9.7 | 0.00 | 0.00 | 0.00 | 87 | 1014.4 |
| 20260504233704 | 11 | 39 | 3.2 | 11.3 | 0.00 | 0.00 | 0.00 | 87 | 1014.5 |
| 20260504233204 | 11 | 69 | 6.4 | 11.3 | 0.00 | 0.00 | 0.00 | 87 | 1014.5 |
| 20260504231703 | 11 | 70 | 3.2 | 11.3 | 0.00 | 0.00 | 0.00 | 87 | 1014.5 |
| 20260504231204 | 11 | 52 | 1.6 | 8.0 | 0.00 | 0.00 | 0.00 | 87 | 1014.6 |
| 20260504230703 | 11 | 57 | 3.2 | 11.3 | 0.00 | 0.00 | 0.00 | 87 | 1014.6 |
| 20260504230204 | 12 | 60 | 3.2 | 11.3 | 0.00 | 0.00 | 0.00 | 87 | 1014.5 |
| 20260504224704 | 12 | 6 | 4.8 | 9.7 | 0.00 | 0.00 | 0.00 | 87 | 1014.6 |
| 20260504224204 | 12 | 68 | 3.2 | 8.0 | 0.00 | 0.00 | 0.00 | 86 | 1014.6 |
| 20260504223704 | 12 | 52 | 0.0 | 4.8 | 0.00 | 0.00 | 0.00 | 86 | 1014.7 |
| 20260504221704 | 12 | 16 | 3.2 | 9.7 | 0.00 | 0.00 | 0.00 | 85 | 1014.5 |
| 20260504221204 | 12 | 351 | 3.2 | 8.0 | 0.00 | 0.00 | 0.00 | 85 | 1014.6 |
| 20260504220704 | 12 | 5 | 1.6 | 12.9 | 0.00 | 0.00 | 0.00 | 85 | 1014.6 |
| 20260504214704 | 12 | 34 | 4.8 | 9.7 | 0.00 | 0.00 | 0.00 | 84 | 1014.7 |
| 20260504214204 | 12 | 2 | 1.6 | 8.0 | 0.00 | 0.00 | 0.00 | 84 | 1014.7 |
| 20260504213203 | 13 | 351 | 4.8 | 12.9 | 0.00 | 0.00 | 0.00 | 84 | 1014.8 |
| 20260504211204 | 13 | 45 | 1.6 | 9.7 | 0.00 | 0.00 | 0.00 | 84 | 1014.9 |
| 20260504210705 | 13 | 10 | 1.6 | 9.7 | 0.00 | 0.00 | 0.00 | 84 | 1014.8 |
| 20260504204703 | 13 | 20 | 4.8 | 19.3 | 0.00 | 0.00 | 0.00 | 84 | 1014.9 |
| 20260504204204 | 13 | 10 | 3.2 | 9.7 | 0.00 | 0.00 | 0.00 | 84 | 1014.8 |
| 20260504203704 | 13 | 22 | 4.8 | 12.9 | 0.00 | 0.00 | 0.00 | 84 | 1014.7 |
| 20260504203204 | 13 | 32 | 3.2 | 8.0 | 0.00 | 0.00 | 0.00 | 84 | 1014.6 |
| 20260504201704 | 13 | 58 | 4.8 | 11.3 | 0.00 | 0.00 | 0.00 | 83 | 1014.6 |
| 20260504201203 | 13 | 48 | 6.4 | 12.9 | 0.00 | 0.00 | 0.00 | 84 | 1014.6 |
| 20260504200204 | 13 | 28 | 3.2 | 9.7 | 0.00 | 0.00 | 0.00 | 83 | 1014.5 |
| 20260504194704 | 13 | 42 | 4.8 | 9.7 | 0.00 | 0.00 | 0.00 | 83 | 1014.3 |
| 20260504193704 | 13 | 55 | 1.6 | 3.2 | 0.00 | 0.00 | 0.00 | 83 | 1014.1 |
| 20260504193204 | 13 | 55 | 1.6 | 9.7 | 0.00 | 0.00 | 0.00 | 83 | 1014.1 |
| 20260504191204 | 14 | 55 | 1.6 | 8.0 | 0.00 | 0.00 | 0.00 | 83 | 1014.0 |